TimeCST,TemperatureF,Dew PointF,Humidity,Sea Level PressureIn,VisibilityMPH,Wind Direction,Wind SpeedMPH,Gust SpeedMPH,PrecipitationIn,Events,Conditions,WindDirDegrees,DateUTC
12:53 AM,42.1,24.1,49,29.93,10.0,WNW,5.8,-,N/A,,Scattered Clouds,300,2014-01-17 06:53:00
1:53 AM,39.0,26.1,60,29.95,10.0,WNW,3.5,-,N/A,,Clear,300,2014-01-17 07:53:00
2:53 AM,36.0,25.0,64,29.96,10.0,Calm,Calm,-,N/A,,Clear,0,2014-01-17 08:53:00
3:53 AM,37.9,24.1,57,29.99,10.0,WNW,5.8,-,N/A,,Clear,290,2014-01-17 09:53:00
4:53 AM,35.1,24.1,64,30.01,10.0,NNW,4.6,-,N/A,,Clear,340,2014-01-17 10:53:00
5:53 AM,35.1,21.0,57,30.04,10.0,WNW,5.8,-,N/A,,Scattered Clouds,300,2014-01-17 11:53:00
6:53 AM,34.0,19.9,56,30.06,10.0,NW,10.4,17.3,N/A,,Partly Cloudy,320,2014-01-17 12:53:00
7:53 AM,32.0,19.9,61,30.10,10.0,NNW,6.9,-,N/A,,Clear,330,2014-01-17 13:53:00
8:53 AM,30.9,18.0,59,30.14,10.0,North,11.5,18.4,N/A,,Clear,350,2014-01-17 14:53:00
9:53 AM,32.0,17.1,54,30.15,10.0,NW,8.1,-,N/A,,Clear,320,2014-01-17 15:53:00
10:53 AM,34.0,16.0,48,30.16,10.0,NW,10.4,19.6,N/A,,Clear,320,2014-01-17 16:53:00
11:53 AM,35.1,15.1,44,30.13,10.0,WNW,9.2,24.2,N/A,,Mostly Cloudy,290,2014-01-17 17:53:00
12:53 PM,37.0,16.0,42,30.12,10.0,WNW,9.2,18.4,N/A,,Partly Cloudy,300,2014-01-17 18:53:00
1:53 PM,37.0,15.1,41,30.12,10.0,WNW,11.5,20.7,N/A,,Partly Cloudy,300,2014-01-17 19:53:00
2:53 PM,37.0,14.0,39,30.14,10.0,NW,10.4,23.0,N/A,,Partly Cloudy,310,2014-01-17 20:53:00
3:53 PM,37.9,16.0,41,30.15,10.0,NW,12.7,20.7,N/A,,Clear,310,2014-01-17 21:53:00
4:53 PM,36.0,14.0,41,30.17,10.0,NW,8.1,17.3,N/A,,Clear,320,2014-01-17 22:53:00
5:53 PM,33.1,17.1,52,30.19,10.0,NW,4.6,-,N/A,,Clear,320,2014-01-17 23:53:00
6:53 PM,28.9,21.9,75,30.19,10.0,Calm,Calm,-,N/A,,Clear,0,2014-01-18 00:53:00
7:53 PM,28.0,19.9,72,30.19,10.0,Calm,Calm,-,N/A,,Clear,0,2014-01-18 01:53:00
8:53 PM,28.9,16.0,58,30.20,10.0,Calm,Calm,-,N/A,,Clear,0,2014-01-18 02:53:00
9:53 PM,26.1,19.0,75,30.21,10.0,Calm,Calm,-,N/A,,Clear,0,2014-01-18 03:53:00
10:53 PM,25.0,19.9,81,30.21,10.0,Calm,Calm,-,N/A,,Clear,0,2014-01-18 04:53:00
11:53 PM,28.0,16.0,61,30.21,10.0,SW,3.5,-,N/A,,Clear,220,2014-01-18 05:53:00